RH
81 78 75 77 89 90 95 90 83 58 53 49 37 46 54 71 71 74 87 81 86 86 84 82 80 77 76 75 76 78 75 78 78 77 76 76 76 76 76 75 73 72 72 68 66 68 69 67 69
80 74 79 93 92 92 91 82 79 66 48 38 42 56 73 90 82 90 92 84 82 87 90 86 83 76 74 74 73 76 76 73 76 76 74 74 76 74 77 73 73 72 71 71 71 70 70 70 69
74 63 90 94 97 92 91 77 73 56 40 41 67 65 78 87 82 89 88 83 85 96 94 83 76 74 72 73 74 72 75 75 75 79 76 75 75 75 75 74 74 74 73 72 72 70 69 69 69
69 84 90 92 91 80 81 75 59 48 43 62 68 86 78 69 78 85 83 84 95 97 91 79 75 75 76 76 76 74 73 77 75 75 76 75 75 74 73 73 75 72 72 72 70 69 65 66 66
69 91 97 96 90 84 70 65 66 60 57 62 63 86 89 85 81 84 88 88 96 97 93 83 78 76 77 76 74 75 73 74 75 74 76 75 73 72 74 73 70 69 70 70 68 67 66 68 70
94 92 95 96 87 82 72 78 78 71 70 71 71 81 94 85 87 86 88 94 96 97 92 88 79 76 74 73 76 75 75 75 75 75 74 74 75 75 72 72 71 69 68 69 65 67 67 67 67
93 96 93 84 86 92 77 74 78 69 69 71 62 92 89 90 82 86 94 98 96 94 93 91 87 79 74 77 76 75 75 73 74 74 75 75 75 72 73 72 70 69 68 68 68 69 69 69 69
80 93 82 84 85 90 71 66 63 62 70 54 59 93 90 84 83 89 95 98 97 96 94 95 91 90 90 86 76 74 74 73 75 74 73 74 73 71 71 77 73 69 68 69 70 70 70 70 71
78 96 90 87 88 75 69 70 63 57 58 58 57 69 76 84 81 92 98 98 98 94 98 97 96 95 93 87 81 78 70 73 74 77 80 87 94 89 83 75 70 68 67 67 68 67 67 70 70
87 96 84 82 80 72 63 64 67 64 70 73 80 78 81 80 82 92 97 97 99 100 99 98 96 95 92 80 94 94 88 91 94 92 92 95 93 87 86 77 72 71 72 66 64 63 64 73 72
84 87 77 84 77 70 60 64 55 71 80 68 87 88 85 82 84 85 90 94 97 98 96 98 97 96 93 94 97 98 92 92 92 91 91 89 89 92 96 96 88 86 80 90 82 78 84 79 84
85 79 77 82 68 61 64 62 61 62 72 62 70 76 78 82 83 83 88 91 94 96 95 96 96 97 93 95 93 93 90 90 89 89 88 90 90 92 93 95 92 92 87 91 90 87 87 84 82
81 73 77 72 64 66 62 58 61 71 66 64 68 72 76 77 78 78 79 80 90 94 93 94 95 95 92 94 93 91 91 90 88 87 86 88 92 92 93 93 90 91 92 91 88 89 81 88 68
64 63 84 90 75 66 71 73 63 70 65 69 73 75 73 73 74 78 77 82 88 90 90 90 92 92 91 93 91 90 90 89 87 88 86 86 90 92 90 91 89 93 90 92 90 88 85 80 67
61 75 81 84 77 78 77 88 72 80 67 72 74 73 72 72 70 75 73 79 83 86 86 89 89 87 90 91 89 88 88 78 86 90 85 85 88 88 89 92 93 94 96 91 92 88 79 74 66
75 73 83 82 91 86 90 97 91 89 66 71 71 70 70 67 67 68 70 76 80 83 87 86 71 82 87 90 89 87 85 84 86 92 92 84 87 85 88 88 91 86 93 86 90 84 81 77 74
54 88 78 81 63 78 80 97 82 76 64 67 69 68 67 64 64 67 68 73 78 83 85 86 82 83 86 88 88 87 84 85 87 87 94 86 84 85 88 85 87 91 91 87 83 85 79 76 73
51 62 73 74 74 70 73 84 80 78 68 64 63 64 62 65 59 64 63 68 76 81 82 83 84 86 89 90 91 93 89 90 87 90 88 85 89 84 92 89 88 92 85 82 90 84 81 80 81
39 37 62 87 91 83 85 86 87 76 78 79 68 60 60 64 60 64 61 64 74 78 82 85 86 90 91 91 93 92 90 90 89 89 87 86 89 88 88 93 90 90 90 88 82 80 85 79 81
35 65 89 85 82 83 90 92 77 77 76 74 77 59 59 59 72 68 67 68 71 77 81 86 87 92 89 87 91 87 92 89 89 93 88 88 88 88 90 92 88 84 88 89 89 85 81 79 83
40 42 89 85 81 77 86 89 91 73 78 76 74 73 64 60 71 66 71 71 70 75 82 84 87 91 88 87 90 94 91 90 95 92 90 87 84 85 89 91 90 90 90 88 88 88 84 81 82
54 35 48 80 86 80 85 87 79 75 86 81 74 73 71 61 64 68 69 72 69 70 74 83 86 90 87 89 88 87 88 91 93 95 95 92 85 82 84 85 89 89 88 88 85 83 83 85 86
37 28 47 77 87 90 89 88 75 79 83 90 86 74 67 55 65 68 64 67 64 66 72 80 87 89 90 90 89 87 92 91 93 95 92 92 92 88 83 88 89 90 86 86 83 87 88 94 90
25 26 57 73 87 91 76 76 83 95 73 78 80 76 68 60 64 66 58 60 62 61 71 80 87 90 90 90 90 90 88 91 94 92 94 94 95 93 86 87 90 90 88 83 85 89 86 87 86
25 28 55 86 90 85 84 86 72 78 71 70 79 77 74 67 66 68 69 67 64 64 71 81 87 88 91 90 91 89 88 90 94 89 89 93 92 92 90 91 94 93 90 86 86 90 88 86 85
26 33 52 79 91 77 84 86 64 79 73 64 68 71 71 69 69 72 78 82 83 75 72 78 84 85 89 91 92 91 91 90 95 92 89 88 94 90 87 89 91 90 88 86 85 87 84 85 85
29 30 29 51 70 77 89 77 76 84 86 74 76 78 81 76 74 73 78 86 85 76 77 77 81 82 87 89 91 92 92 90 87 88 92 88 91 90 85 86 89 91 90 89 91 92 88 88 89
24 25 35 50 68 72 71 90 72 99 97 94 84 83 81 83 79 78 81 81 83 81 83 73 77 82 84 86 91 90 93 90 89 89 89 90 92 90 87 85 87 89 90 90 90 92 89 89 86
35 39 45 44 62 64 73 78 91 93 94 97 94 93 92 87 91 90 93 91 89 93 88 90 91 90 88 87 92 92 90 90 91 90 89 89 89 92 93 92 94 92 90 89 92 92 89 88 88
40 39 39 46 48 73 63 71 81 83 92 89 93 97 94 96 95 92 94 96 96 98 96 95 97 96 93 93 94 93 93 92 93 95 90 89 90 91 94 91 92 90 88 90 91 90 87 92 89
Wind_Speed
3 4 0 2 2 3 2 1 1 10 7 4 12 5 5 4 1 4 1 4 10 7 6 8 10 12 10 9 8 9 10 9 12 10 11 10 11 11 12 13 14 15 15 15 16 16 15 16 15
5 3 1 1 3 3 2 1 2 5 7 16 8 8 4 4 4 8 5 4 9 8 5 5 9 10 10 9 8 8 9 9 9 11 11 10 11 11 12 12 15 15 15 15 16 14 13 13 14
7 1 2 3 2 2 1 1 2 5 17 10 4 5 4 3 8 6 7 10 9 7 6 6 10 9 9 9 10 9 8 10 10 10 10 10 10 11 12 13 14 14 15 15 14 12 11 9 10
3 2 1 2 3 2 1 0 11 15 8 5 8 8 5 6 6 6 12 11 10 6 6 8 10 9 8 9 10 9 8 8 9 9 10 10 10 11 11 12 14 14 14 13 12 11 10 9 9
1 1 2 3 3 3 1 2 2 7 4 5 3 5 8 3 13 13 11 10 11 6 5 5 8 8 8 7 8 9 9 8 9 9 10 10 10 11 11 13 14 13 13 12 11 10 10 12 12
2 2 1 3 4 1 2 3 2 4 5 5 8 7 3 10 12 9 9 9 6 6 5 5 8 9 8 8 11 9 7 8 9 9 9 10 9 10 10 11 12 13 12 11 10 10 11 10 9
2 1 2 4 8 3 2 4 2 6 7 5 7 6 6 6 7 9 8 8 6 5 5 4 5 7 9 8 9 9 10 8 8 10 9 8 9 11 10 10 11 11 10 10 9 10 8 7 7
2 1 1 0 8 5 4 3 8 5 4 7 8 6 10 7 10 11 8 7 6 6 5 4 5 6 5 4 9 8 10 9 9 9 8 9 11 11 11 8 11 11 9 8 7 7 7 6 7
3 1 1 4 7 4 3 6 3 6 9 3 2 9 12 14 14 10 8 5 5 5 4 4 5 5 4 3 5 7 11 9 9 8 11 8 4 5 6 8 10 10 9 7 5 4 4 6 6
3 1 2 4 2 3 6 10 7 6 4 9 15 15 15 13 13 11 8 9 5 5 4 4 4 4 4 4 5 5 6 4 4 5 5 4 5 3 4 6 10 9 8 5 4 3 2 4 2
2 1 6 7 8 3 9 7 4 12 5 13 20 17 14 13 9 8 6 6 6 4 3 4 4 3 3 4 3 2 2 2 3 5 4 4 3 3 3 3 3 3 7 3 4 3 2 2 1
2 4 7 13 14 5 10 7 10 2 5 15 19 18 15 12 11 9 8 6 7 6 5 5 4 4 2 3 3 3 3 2 2 3 3 3 2 3 3 2 3 3 3 4 3 2 3 3 4
4 5 7 7 9 7 4 8 8 3 14 14 17 16 15 13 8 6 5 5 6 6 5 6 5 5 4 4 3 3 3 2 2 1 1 2 2 2 2 2 2 2 1 1 2 2 3 3 2
2 3 9 1 5 12 10 6 2 4 16 15 16 15 14 14 13 7 6 6 6 6 6 6 5 4 5 4 3 2 2 1 2 2 2 3 2 2 2 2 2 2 2 1 1 2 3 3 3
7 8 10 10 6 5 16 10 9 3 13 16 15 14 12 11 11 10 8 8 8 6 6 6 5 4 5 5 4 3 3 2 3 3 4 3 2 3 2 2 2 3 2 3 3 3 3 3 2
3 2 4 8 9 8 1 6 9 9 15 16 15 13 13 11 12 9 8 7 6 5 7 6 7 6 5 5 4 3 2 3 3 3 2 2 3 2 1 0 1 2 2 2 3 3 2 2 2
3 3 1 9 13 9 2 8 10 16 16 15 13 12 12 8 9 8 9 8 7 7 7 7 5 6 6 5 3 2 2 2 3 3 3 4 4 4 2 1 1 2 2 2 2 1 0 2 2
1 2 1 5 7 6 4 4 11 10 12 14 13 12 11 12 15 14 13 9 8 7 6 6 5 4 5 4 3 2 2 0 2 3 3 3 1 2 2 2 1 3 2 3 2 3 2 2 3
2 2 8 4 6 5 6 9 7 8 8 12 7 12 11 14 13 11 12 10 8 7 7 7 6 5 5 3 2 2 2 2 1 2 3 3 3 3 2 1 2 3 3 1 3 2 4 3 3
2 8 7 8 6 5 2 4 1 8 8 15 7 8 14 10 10 10 12 12 12 9 8 7 7 6 5 4 2 3 3 2 2 2 3 4 3 3 3 3 2 2 2 2 3 3 1 2 4
1 3 6 6 4 3 8 3 5 5 6 7 12 5 4 15 17 15 13 14 11 11 11 10 8 7 6 6 4 3 3 3 2 1 1 2 3 3 4 5 4 3 1 2 2 2 4 3 3
3 5 6 14 4 4 1 2 5 9 9 11 13 15 8 12 16 14 15 14 14 11 9 8 7 7 6 7 5 5 4 3 3 2 1 2 2 3 1 1 2 3 2 1 1 2 2 2 3
7 3 7 8 4 3 2 2 5 7 11 14 14 18 15 11 15 17 18 18 13 12 10 7 6 6 5 7 6 5 4 2 1 2 3 3 1 1 3 3 3 2 2 0 0 2 3 1 2
5 2 8 4 4 3 6 6 4 6 11 14 16 16 17 11 16 16 16 11 11 9 8 7 9 7 6 6 7 7 6 4 3 2 3 2 1 1 2 3 3 3 2 2 1 2 3 2 2
3 3 2 2 1 6 2 4 8 4 5 19 25 27 19 9 14 13 13 12 12 12 10 9 10 9 7 7 6 6 6 5 5 5 3 4 2 2 3 4 4 3 3 3 3 2 2 2 1
7 9 7 5 6 3 4 6 5 4 6 11 13 12 12 9 13 14 13 9 6 6 9 10 11 10 8 7 7 5 6 4 4 4 3 3 3 3 3 4 4 4 4 3 3 1 1 1 1
4 4 7 7 3 4 4 6 2 4 6 12 17 18 15 11 12 16 14 12 5 6 9 11 10 8 7 6 5 5 5 6 5 5 3 2 3 3 3 3 4 3 4 4 4 3 3 2 2
7 7 4 3 5 3 4 5 5 2 5 8 14 15 13 11 10 10 9 13 12 8 8 10 8 8 7 7 5 4 5 5 4 3 4 3 3 3 3 3 3 3 4 4 4 2 2 2 1
2 1 5 5 4 7 3 8 2 5 7 8 9 9 12 13 13 12 9 9 10 4 0 6 7 7 7 8 6 6 5 4 3 4 4 4 3 4 4 4 4 5 5 4 4 4 3 3 3
1 2 5 6 5 2 5 7 1 6 10 11 10 8 7 4 6 9 11 11 10 9 3 3 5 3 4 5 5 6 5 5 4 5 5 4 4 2 5 4 4 4 3 3 5 4 4 4 5
Wind_Direction
125 113 2 10 63 62 60 351 184 100 156 166 171 155 152 52 104 173 162 181 129 126 139 131 133 129 124 123 119 112 125 120 110 112 107 106 106 109 109 106 101 103 106 101 105 101 98 96 92
128 132 19 360 49 50 323 151 158 172 143 143 188 105 48 71 68 106 110 177 122 117 110 117 122 127 124 122 122 116 118 125 121 117 118 115 107 109 106 112 105 108 106 107 100 98 97 99 95
147 252 68 76 85 87 174 340 120 112 136 145 114 62 86 88 106 138 131 130 111 101 106 124 128 129 132 141 134 128 117 125 114 113 117 117 113 109 109 109 112 110 103 105 102 99 102 105 113
156 31 17 77 186 237 161 350 110 121 141 91 109 77 68 105 131 130 134 123 112 108 117 138 133 138 143 126 135 128 120 113 119 113 112 117 116 109 105 103 103 102 106 105 97 94 91 105 132
1 51 90 126 270 301 302 73 43 123 111 107 113 81 99 27 110 125 124 120 121 120 133 129 132 138 135 117 117 124 132 127 113 112 116 122 118 110 96 97 99 102 104 103 94 85 90 89 96
68 44 104 163 184 84 339 66 6 62 81 106 86 88 62 123 118 121 115 110 106 118 121 123 134 123 117 117 116 108 114 115 119 115 110 107 107 107 105 90 95 100 106 107 96 86 91 82 99
109 215 140 138 129 95 242 148 63 128 101 85 116 92 116 111 114 103 102 95 90 101 103 119 118 119 118 120 107 107 104 111 121 113 111 111 107 105 100 91 91 98 104 108 97 86 73 64 116
246 215 152 75 143 159 236 108 104 91 58 110 145 143 153 151 115 103 95 94 95 97 98 94 80 90 86 79 115 111 102 105 109 108 119 118 111 108 105 90 86 93 99 99 90 82 69 51 89
200 246 122 131 126 167 201 114 136 83 125 58 87 111 122 126 117 110 112 101 102 111 103 95 88 90 89 95 106 99 101 97 86 75 75 65 48 53 67 93 91 92 93 97 106 105 97 70 92
206 27 56 96 218 145 127 123 128 122 89 98 92 101 122 130 130 135 149 155 143 135 126 119 120 128 113 78 67 61 65 68 74 74 66 55 54 75 71 75 71 78 71 113 115 139 100 81 67
144 198 109 132 222 242 132 122 104 134 114 156 139 140 140 134 136 148 157 167 153 139 136 142 148 150 120 92 89 73 79 80 82 80 68 60 55 55 60 62 52 41 41 29 20 12 6 342 241
180 195 155 169 219 212 152 122 133 129 150 154 142 146 144 149 159 166 169 166 150 152 154 157 169 159 123 107 107 105 103 94 92 95 83 89 75 55 57 65 49 47 21 33 16 350 314 300 272
208 195 148 136 191 178 124 145 128 86 126 145 140 150 154 156 161 160 166 156 147 155 160 169 173 174 142 119 112 112 109 103 106 105 113 121 107 107 69 57 46 74 72 77 36 316 332 325 324
242 92 123 185 201 155 175 97 153 125 135 150 153 160 160 165 165 157 161 157 161 160 172 163 180 174 147 140 155 155 141 166 169 167 152 131 139 130 61 31 22 355 12 25 75 308 327 358 15
156 110 111 134 147 113 114 151 203 132 160 159 166 163 161 172 165 181 176 168 171 178 159 167 170 175 167 162 171 166 169 142 145 161 159 170 138 131 108 71 27 7 12 17 18 15 6 11 31
125 97 120 162 172 155 318 114 158 195 181 171 172 169 166 176 177 176 175 163 165 166 174 160 181 180 178 177 175 184 150 148 150 153 132 161 162 156 104 57 66 28 38 11 36 14 18 7 36
10 220 187 152 190 143 134 139 182 201 181 172 179 178 173 158 170 175 176 166 164 176 164 169 188 179 174 173 156 160 165 159 145 135 156 176 169 163 166 146 63 29 54 35 29 46 44 12 346
126 60 35 135 188 104 111 67 147 170 182 171 181 186 175 163 188 178 178 173 156 168 164 162 181 187 165 132 104 74 110 29 129 148 169 159 147 155 151 138 89 42 59 16 12 42 22 34 334
140 86 96 46 44 70 49 60 161 164 158 185 211 185 184 177 189 172 176 170 159 161 161 170 167 164 151 133 131 125 171 162 116 179 175 188 200 189 135 123 52 39 66 20 5 40 29 18 357
138 115 96 87 128 96 41 27 124 194 201 198 206 199 189 168 164 173 172 170 182 169 174 166 176 171 176 144 140 134 139 140 142 159 196 184 212 196 132 145 125 83 90 59 46 44 48 4 22
121 153 171 132 130 69 141 188 213 190 220 210 204 235 228 180 173 176 176 179 177 176 171 181 180 187 177 140 120 89 74 58 84 197 192 236 195 209 198 160 152 134 118 92 83 45 69 29 19
160 214 134 134 151 156 200 240 230 193 202 202 207 234 238 195 181 172 176 182 184 187 175 177 181 184 170 162 149 152 154 164 205 154 188 203 231 213 193 269 133 152 146 98 95 84 83 97 34
208 228 138 164 90 99 205 126 247 161 202 199 204 217 218 196 190 178 184 193 177 173 178 169 165 185 187 175 169 158 158 166 149 115 155 210 187 193 170 177 149 147 152 234 68 99 86 76 90
138 145 58 72 76 337 203 163 252 198 212 188 195 214 207 196 190 194 189 167 176 175 162 158 172 192 187 186 169 165 171 170 160 175 200 205 153 162 188 180 151 158 180 172 172 114 102 75 73
127 154 65 58 50 227 239 128 246 198 198 187 187 202 200 196 182 178 169 167 174 183 174 168 173 194 190 190 172 176 175 179 178 202 205 189 188 216 200 170 178 185 196 168 156 159 141 119 73
180 160 148 168 189 232 90 226 265 292 257 176 173 191 192 186 173 166 147 135 152 182 184 184 185 191 190 185 185 185 163 163 180 200 209 228 203 203 176 189 190 194 185 196 183 209 191 137 124
194 153 197 113 26 97 220 285 293 35 47 142 152 153 159 165 166 167 154 130 150 192 192 197 195 193 177 187 173 186 181 168 190 221 201 218 212 209 207 200 217 207 206 192 175 179 201 166 168
157 169 94 10 138 187 283 286 238 148 119 113 154 156 152 147 146 157 169 169 183 211 189 183 183 182 174 169 180 183 202 199 193 201 218 208 261 256 213 200 229 230 208 208 194 186 211 219 199
71 210 58 118 134 157 173 258 158 178 153 136 134 137 140 155 153 149 141 144 149 92 158 162 161 174 172 173 173 180 198 218 199 222 238 223 199 206 216 211 224 223 221 205 209 212 201 220 246
167 260 163 132 224 207 153 259 167 168 143 142 135 127 128 136 146 159 152 144 143 127 84 83 104 184 179 170 165 187 184 201 208 220 236 241 248 224 216 216 205 198 206 221 215 228 225 208 233